sat.trackr.live / text

‹ back to catalog

STARLINK-3800

NORAD 52379 · 2022-045BA

PAYLOAD ACTIVE UNKNOWN

§ Identity

Operator
Country
US
Launch date
2022-04-29
Launch site
AFETR
Launch vehicle
Mass (kg)
RCS (m²)

Purposes: comms

External: N2YO · Heavens-Above · Gunter

§ Orbital elements

Epoch: 2026-05-25T04:22:39.722880Z

Period
95.44 min
Inclination
53.2123°
Eccentricity
0.0001108
Mean motion
15.08840927 rev/d
Perigee alt
539.0 km
Apogee alt
540.5 km
Semi-major
6,917.9 km
B*
1.6719e-5
RAAN
205.7326°
Arg perigee
83.1237°
Mean anomaly
276.9881°
Rev number
22,747

§ Raw data

STARLINK-38001 52379U 22045BA  26145.18240420 -.00000022  00000+0  16719-4 0  99902 52379  53.2123 205.7326 0001108  83.1237 276.9881 15.08840927227470

JSON: /api/v1/satellites/52379 · /tle

For live sub-satellite position, see the globe view (requires WebGL).

§ Visibility from observer

Set your observer location to see the next 7 days of passes ≥ 10°. The values pass through the URL so the page stays shareable.

No JS? Fill the form by hand. The geolocation button needs JavaScript.